GW0659 Weather Reports


time (UTC)temp
F
wind
direction
speed
knots
gust
knots
rain 1hr
in
rain 24hr
in
rain mn
in
humidity
%
barometer
mb
20260906232634 62 340 7.8 9.6 0.00 0.91 0.91 77 1016.6
20260906232135 62 5 4.3 7.8 0.00 0.91 0.91 77 1016.7
20260906231629 62 18 4.3 7.8 0.00 0.91 0.91 77 1016.7
20260906231125 62 7 4.3 7.8 0.00 0.91 0.91 76 1016.9
20260906230624 63 12 3.5 7.0 0.00 0.91 0.91 75 1016.9
20260906230119 63 23 4.3 7.8 0.00 0.91 0.91 75 1016.9
20260906225618 63 357 4.3 7.0 0.00 0.91 0.91 74 1017.1
20260906225114 62 1 3.5 7.8 0.00 0.91 0.91 75 1016.8
20260906224608 61 6 5.2 7.8 0.00 0.91 0.91 78 1017.1
20260906224105 61 2 3.5 7.0 0.00 0.91 0.91 79 1017.3
20260906223601 61 9 4.3 7.0 0.00 0.91 0.91 79 1017.3
20260906223100 60 353 2.6 7.0 0.00 0.91 0.91 80 1017.4
20260906222559 60 359 6.1 7.0 0.00 0.91 0.91 80 1017.4
20260906222057 60 358 4.3 7.0 0.00 0.91 0.91 79 1017.4
20260906221555 60 356 2.6 6.1 0.00 0.91 0.91 80 1017.5
20260906221051 59 4 5.2 7.8 0.00 0.91 0.91 80 1017.5
20260906220546 59 7 5.2 8.7 0.00 0.91 0.91 80 1017.4
20260906220042 59 358 2.6 7.0 0.00 0.91 0.91 81 1017.6
20260906215541 59 350 5.2 7.0 0.00 0.91 0.91 80 1017.5
20260906215039 59 353 3.5 6.1 0.00 0.91 0.91 81 1017.5
20260906214537 60 345 5.2 8.7 0.00 0.91 0.91 80 1017.5
20260906214033 60 349 6.1 8.7 0.00 0.91 0.91 79 1017.4
20260906213532 60 0 2.6 7.0 0.00 0.91 0.91 80 1017.5
20260906213027 60 350 5.2 7.8 0.00 0.91 0.91 79 1017.3
20260906212520 60 5 4.3 7.0 0.00 0.91 0.91 80 1017.2
20260906212016 60 353 5.2 7.0 0.00 0.91 0.91 80 1017.2
20260906211509 59 335 4.3 7.8 0.00 0.91 0.91 81 1017.2
20260906211005 59 351 3.5 7.8 0.00 0.91 0.91 80 1017.3
20260906210500 60 351 5.2 8.7 0.00 0.91 0.91 79 1017.1
20260906205959 60 342 5.2 8.7 0.00 0.91 0.91 78 1017.4
20260906205456 59 12 7.0 8.7 0.00 0.91 0.91 79 1017.1
20260906204952 59 349 6.1 8.7 0.00 0.91 0.91 79 1017.2
20260906204451 59 6 2.6 8.7 0.00 0.91 0.91 81 1017.2
20260906203950 59 350 6.1 9.6 0.00 0.91 0.91 81 1017.4
20260906203445 58 355 5.2 11.3 0.00 0.91 0.91 82 1017.3
20260906202943 58 24 8.7 12.2 0.00 0.91 0.91 81 1017.3
20260906202442 58 355 7.8 9.6 0.00 0.91 0.91 82 1017.3
20260906201937 58 7 7.0 13.9 0.00 0.91 0.91 81 1017.4
20260906201432 58 347 8.7 13.0 0.00 0.91 0.91 79 1017.2
20260906200927 58 358 7.0 9.6 0.00 0.91 0.91 79 1017.5
20260906200423 58 335 7.8 16.5 0.00 0.91 0.91 79 1017.4
20260906195923 59 0 7.8 13.0 0.00 0.91 0.91 79 1017.3
20260906195419 59 9 7.0 13.0 0.00 0.91 0.91 78 1017.2
20260906194915 59 331 5.2 12.2 0.00 0.91 0.91 78 1017.3
20260906194410 59 26 3.5 12.2 0.00 0.91 0.91 78 1017.2
20260906193907 59 8 7.8 13.0 0.00 0.91 0.91 77 1017.5
20260906193401 60 353 7.8 11.3 0.00 0.91 0.91 76 1017.4
20260906192857 60 354 8.7 14.8 0.00 0.91 0.91 76 1017.4
20260906192356 60 359 6.1 16.5 0.00 0.91 0.91 76 1017.4
20260906191855 60 353 8.7 13.0 0.00 0.91 0.91 74 1017.4
20260906191351 60 343 7.0 14.8 0.00 0.91 0.91 76 1017.4
20260906190850 60 351 11.3 13.9 0.00 0.91 0.91 75 1017.5
20260906190349 60 351 8.7 15.6 0.00 0.91 0.91 74 1017.4
20260906185844 60 352 8.7 13.9 0.00 0.91 0.91 74 1017.6
20260906185343 60 329 10.4 18.2 0.00 0.91 0.91 74 1017.3
20260906184843 60 355 13.0 18.2 0.00 0.91 0.91 72 1017.5
20260906184338 60 0 13.9 20.9 0.00 0.91 0.91 69 1017.1
20260906183833 60 345 8.7 19.1 0.00 0.91 0.91 70 1017.2
20260906183330 59 344 11.3 18.2 0.00 0.91 0.91 72 1017.1
20260906182829 59 13 13.0 16.5 0.00 0.91 0.91 74 1016.9
20260906182325 58 3 13.0 20.0 0.00 0.91 0.91 75 1017.3
20260906181820 57 350 8.7 22.6 0.00 0.91 0.91 78 1017.2
20260906181317 57 7 13.0 18.2 0.00 0.91 0.91 78 1017.4
20260906180812 57 4 12.2 18.2 0.00 0.91 0.91 79 1017.4
20260906180312 57 7 8.7 14.8 0.00 0.91 0.91 79 1017.7
20260906175809 56 357 13.9 20.9 0.00 0.91 0.91 80 1018.2
20260906175306 56 15 6.1 13.9 0.00 0.91 0.91 83 1018.3
20260906174804 56 357 10.4 15.6 0.00 0.91 0.91 83 1018.3
20260906174303 56 7 11.3 13.9 0.00 0.91 0.91 85 1018.2
20260906173759 55 355 13.9 19.1 0.00 0.91 0.91 87 1018.4
20260906173254 56 6 12.2 15.6 0.00 0.91 0.91 88 1018.6
20260906172754 56 0 8.7 13.9 0.00 0.91 0.91 89 1018.5
20260906172250 55 3 8.7 12.2 0.00 0.91 0.91 91 1018.5
20260906171750 55 9 8.7 19.1 0.00 0.91 0.91 91 1018.6
20260906171245 54 8 8.7 16.5 0.05 0.91 0.91 92 1018.2
20260906170741 54 0 10.4 15.6 0.05 0.91 0.91 91 1018.3
20260906170236 54 4 7.0 12.2 0.07 0.90 0.90 92 1019.3
20260906165732 54 354 7.0 11.3 0.07 0.90 0.90 91 1019.6
20260906165226 54 5 4.3 8.7 0.00 0.89 0.89 90 1019.8
20260906164720 54 325 5.2 7.8 0.00 0.89 0.89 89 1019.6
20260906164215 54 277 7.0 12.2 0.00 0.89 0.89 88 1019.8
20260906163711 54 2 8.7 11.3 0.00 0.89 0.89 89 1019.6
20260906163208 54 2 4.3 12.2 0.00 0.89 0.89 90 1019.3
20260906162704 54 7 8.7 15.6 0.00 0.89 0.89 89 1019.4
20260906162204 54 4 7.0 14.8 0.00 0.89 0.89 89 1019.2
20260906161658 54 336 6.1 13.0 0.00 0.89 0.89 91 1019.2
20260906161157 54 5 9.6 14.8 0.00 0.89 0.89 91 1018.9
20260906160657 54 12 6.1 13.0 0.00 0.89 0.89 92 1018.9
20260906160156 54 21 8.7 15.6 0.00 0.89 0.89 92 1019.3
20260906155653 53 10 6.1 12.2 0.00 0.89 0.89 91 1019.1
20260906155149 53 9 7.8 15.6 0.00 0.89 0.89 91 1019.2
20260906154644 53 7 9.6 13.9 0.00 0.89 0.89 91 1019.2
20260906154139 53 0 8.7 13.9 0.00 0.89 0.89 91 1019.4
20260906153638 54 0 7.0 13.9 0.00 0.89 0.89 91 1019.7
20260906153133 54 13 9.6 11.3 0.00 0.89 0.89 91 1019.7
20260906152633 54 12 8.7 12.2 0.00 0.89 0.89 92 1019.7
20260906152126 54 5 5.2 12.2 0.00 0.89 0.89 92 1019.6
20260906151621 53 351 7.8 8.7 0.00 0.89 0.89 93 1019.7
20260906151118 53 14 5.2 8.7 0.00 0.89 0.89 94 1019.7
20260906150613 52 326 4.3 6.1 0.00 0.89 0.89 94 1019.8
20260906150108 52 296 6.1 8.7 0.00 0.89 0.89 94 1020.2
20260906145606 52 281 7.0 9.6 0.05 0.89 0.89 94 1020.1
20260906145101 52 317 7.0 13.9 0.17 0.89 0.89 95 1020.2
20260906144555 52 243 5.2 12.2 0.24 0.88 0.88 95 1020.2
20260906144051 52 275 8.7 13.9 0.19 0.86 0.86 95 1020.5
20260906143546 51 275 7.0 14.8 0.42 0.84 0.84 95 1020.5
20260906143043 51 298 12.2 16.5 0.54 0.83 0.83 95 1020.3
20260906142542 52 333 10.4 13.9 0.31 0.77 0.77 95 1021.1
20260906142038 52 298 7.0 12.2 0.35 0.74 0.74 94 1020.7
20260906141536 52 296 9.6 14.8 0.38 0.71 0.71 93 1020.6
20260906141032 53 255 5.2 9.6 0.24 0.68 0.68 93 1020.5
20260906140531 54 245 3.5 3.5 0.00 0.64 0.64 92 1020.2
20260906140031 54 216 7.8 13.0 0.00 0.64 0.64 91 1020.1
20260906135528 55 336 12.2 14.8 0.00 0.64 0.64 90 1019.6
20260906135024 55 305 9.6 12.2 0.00 0.64 0.64 90 1019.6
20260906134519 55 354 6.1 8.7 0.00 0.64 0.64 90 1019.2
20260906134014 55 11 4.3 8.7 0.00 0.64 0.64 90 1019.2
20260906133510 55 2 7.8 9.6 0.00 0.64 0.64 91 1019.3
20260906133005 55 350 5.2 12.2 0.00 0.64 0.64 91 1018.9
20260906132500 55 0 6.1 14.8 0.00 0.64 0.64 91 1019.4
20260906131955 54 14 5.2 14.8 0.00 0.64 0.64 91 1018.9
20260906131451 55 12 9.6 12.2 0.00 0.64 0.64 90 1018.8
20260906130946 55 26 7.8 9.6 0.00 0.64 0.64 90 1019.1
20260906130445 55 21 6.1 13.0 0.00 0.64 0.64 89 1019.1
20260906125940 55 1 8.7 15.6 0.00 0.64 0.64 89 1019.3
20260906125438 56 13 7.8 13.9 0.00 0.64 0.64 88 1019.3
20260906124937 57 15 7.0 11.3 0.00 0.64 0.64 86 1019.4
20260906124433 57 7 6.1 8.7 0.00 0.64 0.64 85 1019.5
20260906123933 58 11 7.8 11.3 0.00 0.64 0.64 83 1019.6
20260906123432 58 12 4.3 12.2 0.00 0.64 0.64 82 1019.7
20260906122927 57 7 7.0 13.9 0.00 0.64 0.64 83 1019.6
20260906122421 56 358 7.0 14.8 0.00 0.64 0.64 87 1019.6
20260906121919 56 342 7.8 13.9 0.00 0.64 0.64 87 1019.5
20260906121414 55 348 7.0 11.3 0.00 0.64 0.64 85 1019.5
20260906120910 55 309 12.2 18.2 0.00 0.64 0.64 86 1019.6
20260906120406 55 313 6.1 13.9 0.00 0.64 0.64 86 1020.0
20260906115902 54 289 12.2 14.8 0.00 0.64 0.64 89 1020.1
20260906115357 56 251 13.9 20.0 0.00 0.64 0.64 86 1020.0
20260906114856 56 316 6.1 7.8 0.00 0.64 0.64 86 1020.2
20260906114351 56 3 6.1 13.0 0.00 0.64 0.64 86 1019.8
20260906113847 56 350 6.1 13.0 0.00 0.64 0.64 86 1019.6
20260906113345 56 2 7.8 12.2 0.00 0.64 0.64 85 1019.6
20260906112841 56 6 7.8 13.0 0.00 0.64 0.64 83 1019.6
20260906112338 56 9 6.1 9.6 0.00 0.64 0.64 84 1019.7
20260906111837 56 17 5.2 13.9 0.00 0.64 0.64 83 1019.6
20260906111337 55 14 7.0 13.0 0.00 0.64 0.64 83 1019.5
20260906110832 55 20 4.3 11.3 0.00 0.64 0.64 86 1019.3
20260906110328 55 31 5.2 7.8 0.00 0.64 0.64 87 1019.4
20260906105827 55 15 6.1 11.3 0.00 0.64 0.64 86 1019.4
20260906105323 55 15 8.7 13.9 0.00 0.64 0.64 86 1019.3
20260906104819 55 8 8.7 15.6 0.00 0.64 0.64 86 1019.4
20260906104317 55 9 6.1 13.0 0.00 0.64 0.64 87 1019.6
20260906103816 54 19 6.1 11.3 0.00 0.64 0.64 88 1019.6
20260906103315 55 1 7.8 12.2 0.00 0.64 0.64 89 1019.8
20260906102811 54 13 8.7 13.9 0.00 0.64 0.64 89 1019.8
20260906102309 54 344 9.6 15.6 0.00 0.64 0.64 90 1019.6
20260906101805 54 359 8.7 13.0 0.00 0.64 0.64 91 1019.7
20260906101300 54 358 11.3 20.0 0.00 0.64 0.64 92 1019.8
20260906100755 53 4 9.6 15.6 0.00 0.64 0.64 93 1019.7
20260906100254 53 348 11.3 15.6 0.00 0.64 0.64 93 1019.6
20260906095750 53 359 7.0 12.2 0.00 0.64 0.64 93 1019.8
20260906095245 53 6 10.4 15.6 0.00 0.64 0.64 93 1019.7
20260906094744 53 359 6.1 12.2 0.00 0.64 0.64 92 1019.7
20260906094239 54 357 6.1 8.7 0.00 0.64 0.64 91 1019.8
20260906093735 54 50 3.5 7.0 0.00 0.64 0.64 92 1020.1
20260906093231 53 7 8.7 13.9 0.00 0.64 0.64 93 1020.2
20260906092726 53 33 0.0 0.0 0.00 0.64 0.64 92 1020.3
20260906092225 54 357 5.2 6.1 0.00 0.64 0.64 91 1020.4
20260906091722 54 0 6.1 9.6 0.12 0.64 0.64 91 1020.6
20260906091218 54 349 5.2 11.3 0.31 0.64 0.64 92 1020.8
20260906090715 53 2 8.7 13.0 0.47 0.61 0.61 95 1021.1
20260906090214 53 47 2.6 3.5 0.52 0.58 0.58 95 1021.6
20260906085713 53 3 2.6 5.2 0.54 0.52 0.52 95 1021.5
20260906085212 53 314 3.5 6.1 1.21 0.49 0.49 95 1021.6
20260906084707 53 288 5.2 8.7 1.39 0.38 0.38 94 1021.7
20260906084207 54 286 7.8 12.2 0.66 0.26 0.26 93 1021.5
20260906083701 54 318 7.0 9.6 0.24 0.15 0.15 93 1021.6
20260906083156 54 330 7.8 12.2 0.19 0.14 0.14 93 1021.6
20260906082651 54 329 5.2 7.8 0.05 0.11 0.11 93 1021.2
20260906082147 54 352 5.2 7.8 0.00 0.10 0.10 92 1021.3
20260906081643 53 353 3.5 9.6 0.00 0.10 0.10 92 1020.8
20260906081138 53 3 6.1 15.6 0.00 0.10 0.10 92 1019.8
20260906080634 53 323 12.2 15.6 0.00 0.10 0.10 93 1020.1
20260906080130 54 0 13.9 16.5 0.00 0.10 0.10 93 1020.3
20260906075630 53 349 10.4 13.0 0.00 0.10 0.10 93 1020.6
20260906075124 53 348 9.6 13.0 0.00 0.10 0.10 94 1021.1
20260906074620 53 342 7.0 13.9 0.00 0.10 0.10 93 1021.2
20260906074118 53 320 9.6 15.6 0.00 0.10 0.10 93 1021.5
20260906073613 53 331 7.8 13.9 0.00 0.10 0.10 93 1021.1
20260906073109 53 3 12.2 18.2 0.00 0.10 0.10 93 1020.8
20260906072605 53 348 9.6 16.5 0.00 0.10 0.10 93 1020.6
20260906072101 54 350 11.3 16.5 0.00 0.10 0.10 93 1020.6
20260906071557 54 346 7.8 19.1 0.00 0.10 0.10 93 1020.6
20260906071056 54 2 10.4 18.2 0.00 0.10 0.10 93 1020.7
20260906070553 54 6 11.3 14.8 0.07 0.10 0.10 93 1021.3
20260906070049 54 352 7.0 14.8 0.14 0.10 0.10 92 1021.4
20260906065548 54 301 5.2 8.7 0.12 0.09 0.09 92 1021.8
20260906065044 54 0 6.1 13.0 0.05 0.08 0.08 91 1021.6
20260906064539 54 356 8.7 13.0 0.00 0.07 0.07 91 1021.5
20260906064034 54 355 8.7 14.8 0.00 0.07 0.07 91 1021.3
20260906063530 54 358 7.8 14.8 0.12 0.07 0.07 92 1021.5
20260906063026 54 325 7.8 12.2 0.31 0.07 0.07 92 1022.1
20260906062521 54 316 5.2 9.6 0.24 0.05 0.05 92 1022.3
20260906062015 54 331 5.2 9.6 0.05 0.02 0.02 91 1023.0
20260906061512 54 334 4.3 9.6 0.07 0.01 0.01 92 1022.7
20260906061010 54 6 5.2 8.7 0.07 0.01 0.01 91 1022.4
20260906060507 54 350 8.7 9.6 0.00 0.00 0.00 91 1022.2
20260906060004 54 8 7.8 13.0 0.00 0.25 0.25 91 1022.1
20260906055459 54 5 8.7 13.9 0.00 0.25 0.25 90 1022.0
20260906054955 54 340 9.6 13.9 0.00 0.25 0.25 90 1021.7
20260906054454 54 351 8.7 13.0 0.00 0.25 0.25 90 1021.8
20260906053950 54 348 7.8 11.3 0.00 0.25 0.25 90 1021.8
20260906053446 54 2 9.6 13.0 0.00 0.25 0.25 90 1022.1
20260906052942 54 358 10.4 13.0 0.00 0.25 0.25 91 1021.8
20260906052438 54 348 10.4 13.9 0.00 0.25 0.25 92 1021.7
20260906051934 53 357 5.2 14.8 0.00 0.25 0.25 92 1021.7
20260906051430 53 348 11.3 13.9 0.00 0.25 0.25 93 1021.7
20260906050925 53 10 9.6 12.2 0.05 0.25 0.25 93 1021.6
20260906050425 53 345 11.3 19.1 0.17 0.25 0.25 92 1021.5
20260906045924 53 358 7.0 19.1 0.26 0.24 0.24 91 1021.8
20260906045423 53 346 6.1 9.6 0.07 0.21 0.21 90 1023.0
20260906044920 53 352 6.1 12.2 0.00 0.20 0.20 90 1022.9
20260906044419 54 333 7.0 11.3 0.00 0.20 0.20 89 1021.8
20260906043915 54 352 9.6 14.8 0.05 0.20 0.20 89 1021.3
20260906043411 54 327 10.4 13.9 0.05 0.20 0.20 89 1021.3
20260906042906 54 349 10.4 14.8 0.00 0.19 0.19 87 1020.8
20260906042405 54 332 13.0 18.2 0.00 0.19 0.19 88 1020.8
20260906041901 53 347 7.8 13.0 0.00 0.19 0.19 88 1021.1
20260906041357 53 11 9.6 16.5 0.00 0.19 0.19 88 1021.2
20260906040856 53 4 10.4 15.6 0.00 0.19 0.19 89 1020.8
20260906040352 54 352 12.2 14.8 0.07 0.19 0.19 88 1021.1
20260906035847 53 6 11.3 16.5 0.12 0.19 0.19 89 1020.7
20260906035342 53 0 10.4 16.5 0.17 0.18 0.18 89 1020.5
20260906034838 54 355 9.6 18.2 0.17 0.16 0.16 89 1020.7
20260906034332 54 20 5.2 8.7 0.28 0.14 0.14 89 1022.7
20260906033828 54 355 7.0 7.8 0.24 0.12 0.12 87 1022.6
20260906033327 54 0 7.8 13.0 0.19 0.09 0.09 86 1022.1
20260906032824 55 354 7.8 14.8 0.12 0.08 0.08 84 1022.3
20260906032320 56 352 9.6 14.8 0.00 0.06 0.06 81 1021.7
20260906031814 57 8 7.8 14.8 0.00 0.06 0.06 77 1021.2
20260906031310 58 1 10.4 18.2 0.00 0.06 0.06 72 1021.0
20260906030810 58 350 13.0 19.1 0.00 0.06 0.06 72 1020.8
20260906030305 58 5 12.2 14.8 0.00 0.06 0.06 72 1020.8
20260906025804 58 357 9.6 14.8 0.00 0.06 0.06 72 1020.5
20260906025259 58 344 9.6 20.9 0.00 0.06 0.06 71 1020.2
20260906024758 58 355 7.8 18.2 0.00 0.06 0.06 71 1020.1
20260906024257 58 351 12.2 19.1 0.00 0.06 0.06 71 1019.8
20260906023753 58 345 11.3 22.6 0.00 0.06 0.06 71 1019.6
20260906023248 58 349 14.8 19.1 0.00 0.06 0.06 71 1019.7
20260906022744 58 10 7.8 20.0 0.00 0.06 0.06 70 1019.8
20260906022238 59 6 11.3 20.9 0.00 0.06 0.06 69 1019.8
20260906021735 59 358 10.4 18.2 0.00 0.06 0.06 69 1019.6
20260906021233 59 9 12.2 18.2 0.00 0.06 0.06 69 1020.1
20260906020728 59 5 13.0 19.1 0.00 0.06 0.06 69 1019.8
20260906020223 59 0 7.8 15.6 0.00 0.06 0.06 68 1019.8
20260906015723 60 3 7.8 13.9 0.00 0.06 0.06 68 1019.8
20260906015221 60 11 9.6 18.2 0.00 0.06 0.06 68 1019.8
20260906014716 60 355 13.0 18.2 0.00 0.06 0.06 67 1019.7
20260906014212 60 1 7.8 14.8 0.00 0.06 0.06 67 1019.8
20260906013708 60 351 7.8 13.0 0.00 0.06 0.06 67 1020.0
20260906013208 60 2 8.7 20.0 0.00 0.06 0.06 66 1019.8
20260906012703 61 10 7.8 16.5 0.00 0.06 0.06 66 1019.6
20260906012158 61 11 7.8 13.9 0.00 0.06 0.06 65 1019.7
20260906011654 61 358 5.2 16.5 0.00 0.06 0.06 64 1019.8
20260906011154 61 22 8.7 16.5 0.00 0.06 0.06 64 1019.7
20260906010649 62 340 12.2 18.2 0.00 0.06 0.06 64 1019.8
20260906010145 61 11 8.7 14.8 0.00 0.06 0.06 64 1019.6
20260906005645 62 357 10.4 14.8 0.00 0.06 0.06 64 1019.6
20260906005144 62 3 12.2 15.6 0.00 0.06 0.06 63 1019.7
20260906004643 62 359 10.4 15.6 0.00 0.06 0.06 63 1019.8
20260906004138 62 358 10.4 13.0 0.00 0.06 0.06 63 1019.8
20260906003633 62 352 9.6 15.6 0.00 0.06 0.06 63 1019.8
20260906003129 63 359 9.6 13.9 0.00 0.06 0.06 62 1019.6
20260906002624 63 350 8.7 14.8 0.00 0.06 0.06 62 1020.1
20260906002119 63 350 14.8 19.1 0.00 0.06 0.06 62 1020.2
20260906001614 63 343 11.3 13.9 0.00 0.06 0.06 62 1020.3
20260906001108 64 351 9.6 13.0 0.00 0.06 0.06 61 1020.2
20260906000604 64 352 8.7 15.6 0.00 0.06 0.06 61 1020.1
20260906000059 64 3 7.0 13.0 0.00 0.06 0.06 60 1020.0
20260905235558 64 350 7.8 12.2 0.00 0.06 0.06 59 1020.4
20260905235054 64 359 5.2 9.6 0.00 0.06 0.06 61 1020.2
20260905234549 65 351 10.4 12.2 0.00 0.06 0.06 58 1020.3
20260905234044 65 358 6.1 12.2 0.00 0.06 0.06 58 1020.4
20260905233544 65 331 6.1 9.6 0.00 0.06 0.06 59 1020.3
20260905233044 65 4 7.0 13.9 0.00 0.06 0.06 58 1020.3